Flag for Colombia Weather past 2 weeks in Medellin, Colombia

Now
70 °F

Passing clouds.


Feels Like: 70 °F
Forecast: N/A
Wind: 9 mph from East

Location: Rionegro / J. M. Cordova

Current Time: Mar 5, 2015 at 6:03:19 PM

Latest Report: Mar 5, 2015 at 5:00 PM


Visibility: N/A

Pressure: 30.17 "Hg

Humidity: 57%

Dew point: 54 °F

Location of MedellinLocation

Historic Weather in Medellin — Graph

°F

Medellin temperature yesterday

Maximum temperature yesterday: 72 °F (at 2:00 PM)
Minimum temperature yesterday: 48 °F (at 6:00 PM)
Average temperature yesterday: 63 °F

Past Weeks' High & Low Weather Summary

 TemperatureHumidityPressure
High88 °F (Feb 28, 12:00 PM)100% (Feb 19, 5:00 AM)30.35 "Hg (Feb 19, 5:00 AM)
Low34 °F (Feb 26, 11:00 PM)33% (Feb 28, 12:00 PM)30.15 "Hg (Feb 26, 8:00 AM)
Average62 °F81%30.26 "Hg
* Reported Feb 18 5:00 PM — Mar 5 5:00 PM, Medellin, Weather by CustomWeather, © 2015

Note: Actual official high and low records may vary slightly from our data, if they occured in-between our weather recording intervals... More about our weather records

Advertising

Medellin weather history for previous 24 hours

 ConditionsComfort  
Time TempWeatherWind HumidityBarometerVisibility
5:00 PM
Thu, Mar 5
70 °FPassing clouds.9 mph57%30.17 "HgN/A
4:00 PM70 °FPassing clouds.9 mph60%30.17 "HgN/A
3:00 PM70 °FScattered clouds.8 mph60%30.19 "HgN/A
2:00 PM66 °FScattered clouds.7 mph73%30.22 "HgN/A
1:00 PM64 °FPartly sunny.12 mph78%30.24 "HgN/A
12:00 PM64 °FScattered clouds.13 mph78%30.25 "HgN/A
11:00 AM64 °FScattered clouds.9 mph78%30.28 "HgN/A
10:00 AM63 °FDrizzle. Broken clouds.5 mph83%30.29 "Hg3 mi
9:00 AM61 °FMixture of precip. Scattered clouds.5 mph83%30.28 "Hg5 mi
8:00 AM59 °FFog.No wind94%30.26 "Hg2 mi
7:00 AM57 °FFog.No wind94%30.24 "Hg2 mi
6:00 AM59 °FFog.No wind94%30.21 "Hg4 mi
5:00 AM57 °FFog.No wind94%30.20 "Hg5 mi
4:00 AM57 °FFog.No wind94%30.19 "Hg4 mi
3:00 AM57 °FFog.5 mph94%30.19 "Hg3 mi
1:00 AM59 °FFog.No wind94%30.23 "Hg5 mi
12:00 AM59 °FFog.No wind94%30.24 "Hg3 mi
11:00 PM
Wed, Mar 4
61 °FFog.No wind88%30.26 "Hg3 mi
10:00 PM61 °FPartly cloudy.No wind88%30.25 "Hg4 mi
9:00 PM63 °FPassing clouds.No wind88%30.24 "HgN/A
8:00 PM63 °FPassing clouds.No wind88%30.22 "HgN/A
7:00 PM64 °FPassing clouds.7 mph83%30.20 "HgN/A
6:00 PM48 °FScattered clouds.10 mph100%30.17 "HgN/A
Weather by CustomWeather, © 2015

See weather overviewHow to use our weather pages